075  
ASCA44 KEWX 231520  
RWRMX  
 
LATIN AMERICA AND CARIBBEAN REGIONAL WEATHER ROUNDUP  
NATIONAL WEATHER SERVICE AUSTIN/SAN ANTONIO TX  
1000 AM CDT SAT JUN 23 2018  
 
NOTE: "FAIR" INDICATED FEW OR NO CLOUDS BELOW 12,000 FEET WITH NO  
SIGNIFICANT WEATHER AND/OR S TO VISIBILITY
.  
 
BAJA CALIFORNIA  
 
CITY SKY/WX TMP DP RH WIND PRES REMARKS
 
LORETO SUNNY 79 68 69 CALM 29.76F  
LA PAZ PTSUNNY 68 59 73 S7 29.95R  
MEXICALI SUNNY 79 70 73 E15 29.71R  
S.J. DEL CABO CLOUDY 72 61 68 CALM 29.93R  
TIJUANA CLOUDY 63 59 88 CALM 29.88R HAZE  
 
NORTHWESTERN MEXICO  
 
CITY SKY/WX TMP DP RH WIND PRES REMARKS
 
CULIACAN PTSUNNY 82 63 51 E3 29.94R  
DURANGO MOSUNNY 66 55 68 S13 30.24S  
GUAYMAS SUNNY 84 73 70 SE23G35 29.84R HX 91  
HERMOSILLO SUNNY 86 61 42 E14 29.92R  
CD. JUAREZ SUNNY 84 23 10 SW14 29.93R  
LOS MOCHIS MOSUNNY 81 68 65 E17 29.93  
OBREGON MOSUNNY 82 63 51 S10 29.90R  
 
NORTHEASTERN MEXICO  
 
CITY SKY/WX TMP DP RH WIND PRES REMARKS
 
CHIHUAHUA SUNNY 82 52 34 SW6 30.03R  
MATAMOROS PTSUNNY 86 79 79 S16 29.87S HX 99  
MONCLOVA N/A N/A N/A N/A MISG N/A  
MONTERREY CLOUDY 79 73 83 CALM 29.86S HAZE  
NUEVO LAREDO PTSUNNY 82 75 78 SE18 29.82S  
PIEDRAS NEGRAS MOSUNNY 84 72 65 SE12 29.82S  
REYNOSA PTSUNNY 82 75 78 S23 29.84S  
SALTILLO SUNNY 77 57 50 SW7 30.14R  
TORREON MOSUNNY 82 59 44 SE6 30.03S  
CD. VICTORIA MOSUNNY 82 70 65 SE22 29.88S  
 
WESTERN MEXICO  
 
CITY SKY/WX TMP DP RH WIND PRES REMARKS
 
AGUASCALIENTES CLOUDY 63 54 72 SW3 30.29S  
COLIMA MOSUNNY 75 70 83 CALM 29.99S  
DEL BAJIO CLOUDY 66 57 72 CALM 30.31F  
GUADALAJARA PTSUNNY 66 59 77 CALM 30.21F HAZE  
MANZANILLO MOSUNNY 86 73 66 CALM 29.89R HX 93  
MAZATLAN PTSUNNY 81 70 69 CALM 29.95R  
P. VALLARTA MOSUNNY 81 75 83 N7 29.92S  
URUAPAN PTSUNNY 64 59 82 CALM 30.18S  
ZACATECAS PTSUNNY 61 52 72 S7 30.31R  
 
CENTRAL MEXICO  
 
CITY SKY/WX TMP DP RH WIND PRES REMARKS
 
CUERNAVACA CLOUDY 63 61 94 E3 30.11S  
MEXICO CITY MOSUNNY 66 48 52 SE7 30.34S  
MORELIA PTSUNNY 66 57 72 S3 30.25S  
POZA RICA SUNNY 84 75 74 NW9 29.91F HX 92  
PUEBLA MOSUNNY 63 52 67 CALM 30.35S  
QUERETARO PTSUNNY 64 57 77 CALM 30.32R  
S. LUIS POTOSI CLOUDY 66 55 68 CALM 30.25S  
TAMPICO MOSUNNY 84 79 84 MISG 29.89S HX 96  
TOLUCA PTSUNNY 61 46 59 CALM 30.38F  
 
SOUTHERN MEXICO  
 
CITY SKY/WX TMP DP RH WIND PRES REMARKS
 
ACAPULCO MOSUNNY 82 75 78 SE5 29.91S  
B. DE HUATULCO CLOUDY 82 68 61 CALM 29.94S  
OAXACA PTSUNNY 66 59 77 CALM 30.25F  
P. ESCONDIDO CLOUDY 75 68 78 NE3 30.00S  
VERACRUZ MOSUNNY 84 70 61 CALM 29.86S  
ZIHUATANEJO MOSUNNY 86 73 66 SE6 29.89S HX 93  
 
YUCATAN PENINSULA  
 
CITY SKY/WX TMP DP RH WIND PRES REMARKS
 
CAMPECHE PTSUNNY 81 79 94 E12 29.94S  
CANCUN PTSUNNY 84 79 84 E14 30.00R HX 96  
CHETUMAL PTSUNNY 84 77 79 E16 29.95R HX 94  
CD. DEL CARMEN MOSUNNY 82 75 78 SE13 29.92S  
COZUMEL PTSUNNY 84 79 84 SE14 29.98R HX 96  
MERIDA PTSUNNY 84 77 79 SE10 29.97S HX 94  
MINATITLAN MOSUNNY 82 75 78 CALM 29.88R  
TAPACHULA MOSUNNY 86 73 66 W6 29.90F HX 93  
TUX. GUTIERREZ PTSUNNY 73 70 88 SE2 30.01F  
VILLAHERMOSA PTSUNNY 82 73 74 W6 29.95R  
 
CENTRAL AMERICA  
 
CITY SKY/WX TMP DP RH WIND PRES REMARKS
 
BELIZE CITY MOSUNNY 86 79 79 SE8 29.92S HX 99  
MANAGUA MOSUNNY 84 75 74 E9 29.92R HX 92  
 
CARIBBEAN  
 
CITY SKY/WX TMP DP RH WIND PRES REMARKS
 
ARUBA MOSUNNY 86 73 66 E20 29.94S HX 93  
CURACAO MOSUNNY 86 70 58 E18G31 29.94S HX 90  
KINGSTON MOSUNNY 88 73 62 S5 29.94S HX 96  
NASSAU MOSUNNY 75 70 83 S10 30.07R THUNDER  
SAN JUAN HVY RAIN 73 73 100 E8 30.16 FOG  
SANTO DOMINGO PTSUNNY 84 75 74 E10 30.03S HX 92  
ST. CROIX PTSUNNY 82 77 83 SE10 30.09 HX 91  
ST. KITTS MOSUNNY 86 73 66 E20 30.06S HX 93  
ST. MAARTEN MOSUNNY 84 73 70 E15 30.06S HX 91  
ST. THOMAS CLOUDY 79 73 83 NE6 30.09  
 

 
 
 
 
CLICK HERE TO GO TO PREVIOUS BULLETINS.

The Nexlab HPC Page Main Text Page